STARLINK-31838 (60130 NORAD) Tracking and Keplerian Element Data

This shows tracking and keplerian element data for the satellite.

Feedback or suggestion? Click here.




ElementValue
Catalog60130
NameSTARLINK-31838
Epoch Orbit1706
Epoch Day286.32525952
Epoch Year2024
RAAN253.6857
Inclination53.1572
Eccentricity0.0001322
Argument of Perigee115.4707
Mean Anonmoly244.6435
Mean Motion15.39611354
Decay Rate2.081E-05
L11 60130U 24118T 24286.32525952 .00002081 00000+0 62020-4 0 9995
L22 60130 53.1572 253.6857 0001322 115.4707 244.6435 15.39611354 17064



Live tracking and technical data element details for STARLINK-31838 (NORAD 60130). STARLINK-31838 can be tracked NOW for your location showing map with azimuth and elevation plus other details from your city location.







IsCatalogInMostPopularTable: catalog: 60130, numindb: 11
Update: records affected: 1



GetName: 60130 STARLINK-31838

Hit Count: updated at: Thu, 23 Jan 2025 13:03:49 GMT